Location: Unspecified
(0.0000°N, 0.0000°E)
Time: 16:22:32
(UTC+00:00)

Altair - Pass Details

Date: 22 November 2019
Orbit: 1502 x 1682 km, 47.2° (Epoch: 12 December)

Event Time Altitude Azimuth Distance (km) Brightness Sun altitude
Rises 21:57:52 0° 210° (SSW) 4,842 10.6 -56.7°
Reaches altitude 10° 22:01:10 10° 205° (SSW) 3,830 9.9 -57.3°
Enters shadow 22:03:12 18° 200° (SSW) 3,230 9.4 -57.7°
Maximum altitude 22:10:32 53° 130° (SE) 1,867 - -59.1°
Drops below altitude 10° 22:19:31 10° 56° (NE) 3,689 - -60.7°
Sets 22:22:37 0° 51° (NE) 4,653 - -61.2°
